Regional Weather Roundup
Issued by NWS

Home | Current Version | Previous Version | Text Only | Print | Product List | Glossary Off
Versions: 1 2 3 4 5 6 7 8 9 10 11 12 13 14 15 16 17 18 19 20 21 22 23 24 25 26 27 28 29 30 31 32 33 34 35 36 37 38 39 40 41 42 43 44 45 46 47 48 49 50

000
ASUS43 KLMK 300402
RWRKY
KENTUCKY REGIONAL WEATHER ROUNDUP
NATIONAL WEATHER SERVICE LOUISVILLE KY
1200 AM EDT TUE AUG 30 2016

NOTE "FAIR" INDICATES FEW OR NO CLOUDS BELOW 12,000 FEET
WITH NO SIGNIFICANT WEATHER AND/OR OBSTRUCTIONS TO VISIBILITY.

KYZ001>023-026-027-061>063-070>075-300500-
WESTERN AND SOUTH CENTRAL KENTUCKY

CITY           SKY/WX    TMP DP  RH WIND       PRES   REMARKS
PADUCAH        CLEAR     79  72  79 NE3       30.11R
HENDERSON      CLEAR     73  70  88 E3        30.12S
OWENSBORO      CLEAR     80  73  79 NE5       30.13S
HOPKINSVILLE   CLEAR     78  74  88 NE7       30.12R
BOWLING GREEN  CLEAR     77  71  82 N3        30.13S
GLASGOW        CLEAR     74  70  87 NE3       30.14S
$$

KYZ024-025-028>034-038-045-046-053-300500-
NORTH CENTRAL KENTUCKY

CITY           SKY/WX    TMP DP  RH WIND       PRES   REMARKS
LOUISVILLE/SDF CLEAR     79  71  76 N5        30.14S
LOUISVILLE/LOU CLEAR     80  69  69 N3        30.15R
FORT KNOX      CLEAR     76  70  82 NE2       30.14R
$$

KYZ035>037-039>044-047>052-055>060-089>105-300500-
NORTHEAST KENTUCKY

CITY           SKY/WX    TMP DP  RH WIND       PRES   REMARKS
LEXINGTON      CLEAR     77  69  76 E6        30.17R
COVINGTON      CLEAR     78  71  79 E7        30.17S
FRANKFORT      CLEAR     75  71  87 CALM      30.15S
$$

KYZ054-064>069-076>088-106>120-300500-
SOUTHEAST KENTUCKY

CITY           SKY/WX    TMP DP  RH WIND       PRES   REMARKS
JACKSON        CLEAR     73  69  87 CALM      30.19R
LONDON         CLEAR     72  67  84 N5        30.16F
SOMERSET       CLEAR     70  66  88 CALM      30.16S
MIDDLESBORO    CLEAR     70  70 100 CALM      30.17S
MONTICELLO     CLEAR    N/A N/A N/A N14       30.17S
$$





USA.gov is the U.S. government's official web portal to all federal, state and local government web resources and services.